FENGYUN 1C DEB, 31028

Orbit data source: Space-Track

FENGYUN 1C DEB, 31028 is space debris in SSO originally from a launch on Mon, 10 May 1999 UTC launched from the Taiyaun Space Center, China (TSC). Fengyun 1C debris stems from the Chinese weather satellite Fengyun-1C, which was intentionally destroyed by a Chinese anti-satellite missile in 2007. This event dramatically increased the amount of space debris, with thousands of trackable fragments posing hazards to satellites and human spaceflight. The Fengyun 1C debris cloud has become a focal point in discussions about space sustainability and the need for international regulations to prevent the creation of new debris.

Loading next visibility...
Identifier
31028, 1999-025BDW
Orbit
SSO
Country
Flag of CNCN / PRC
Related business
Manufacturer
Unknown
Mission
Spacecraft
Bus & Motor
Unknown
Mass
Unknown
Launch date (UTC)
1999-05-10 (27 years ago)
Launch vehicle
Unknown
Launch site
Taiyaun Space Center, China (TSC)
Object type
Payload
Rocket body
Debris
Shape & HBR
Unknown shape, 0.1 m
Radar Cross Section
Small (<0.1 m²)

Expand to show TLE details & history
Last TLE update: 2 days ago

TLE from 2 days ago
0 FENGYUN 1C DEB
1 31028U 99025BDW 26070.02547564  .00000471  00000-0  37646-3 0  9998
2 31028  98.7120   1.1743 0166209  52.4953 309.1185 13.89141465632292
Epoch: 2026-03-11T00:36Z
TLE epoch observation values (Epoch: 2026-03-11T00:36:41.095Z)
Latitude
-0.00002°
Longitude
-176.69256°
Altitude
859.079 km
Speed
7.461 km/s
True Right ascension
00h 04m 41s
True Declination
0° 00' 00"
Sunlit
Object was in daylight at epoch
Visualization orbit readout
Latitude
Unknown
Longitude
Unknown
Altitude
Unknown
Speed
Unknown
Apparent Right ascension
Unknown
Apparent Declination
Unknown
Sunlit
N/A
Visualization observer readout
Local Sidereal Time
02:17:43
Azimuth
Unknown
Elevation
Unknown
Doppler factor
Unknown
Orbital elements
Apogee altitude
1,050.289 km
Perigee altitude
807.391 km
Semi-major axis
7,306.977 km
Eccentricity
0.01662
Inclination
98.712°
RAAN
1.1743°
Arg. of periapsis
52.4953°
True anomaly
307.62137°
Mean anomaly
309.1185°
Eccentric anomaly
308.37189°
Mean motion
3.47485 °/min
Orbital period
103.6 mins
BSTAR
0.00037646
Loading maneuver chart data...
Computing Atmospheric mass density...

Documentation

Showing up to 5 results
|